EW3708 Weather Reports


Display with metric or nautical units.
time (UTC)temp
F
wind
direction
speed
MPH
gust
MPH
rain 1hr
in
rain 24hr
in
rain mn
in
humidity
%
barometer
mb
20260505180022 78 213 6.0 18.0 0.00 0.01 0.01 32 1006.9
20260505174528 78 184 11.0 19.0 0.00 0.01 0.01 32 1006.9
20260505173017 77 148 7.0 20.0 0.00 0.01 0.01 36 1007.2
20260505171516 77 153 9.0 20.0 0.00 0.01 0.01 35 1007.1
20260505170018 76 116 6.0 17.0 0.00 0.01 0.01 36 1007.1
20260505164512 76 146 6.0 12.0 0.00 0.01 0.01 38 1007.4
20260505163013 76 214 5.0 17.0 0.00 0.01 0.01 40 1007.5
20260505161507 75 123 3.0 19.0 0.00 0.01 0.01 43 1007.8
20260505153106 72 227 4.0 11.0 0.00 0.01 0.01 47 1008.3
20260505151604 71 167 5.0 16.0 0.00 0.01 0.01 49 1008.2
20260505124555 63 171 2.0 6.0 0.00 0.01 0.01 62 1008.8
20260505123050 62 158 3.0 8.0 0.00 0.01 0.01 65 1008.9
20260505121558 60 167 4.0 10.0 0.00 0.01 0.01 68 1008.8
20260505120044 59 157 4.0 9.0 0.00 0.01 0.01 69 1008.8
20260505114540 58 248 3.0 8.0 0.00 0.01 0.01 72 1009.0
20260505113040 56 148 2.0 7.0 0.00 0.01 0.01 77 1008.8
20260505111541 55 136 2.0 5.0 0.00 0.01 0.01 79 1008.5
20260505101535 52 281 0.0 2.0 0.00 0.01 0.01 88 1008.5
20260505100034 52 281 0.0 2.0 0.00 0.01 0.01 88 1008.3
20260505094535 52 281 0.0 1.0 0.00 0.01 0.01 86 1008.3
20260505093034 53 281 0.0 2.0 0.01 0.01 0.01 85 1008.2
20260505091528 54 281 0.0 3.0 0.01 0.01 0.01 83 1008.1
20260505090021 55 287 0.0 5.0 0.01 0.01 0.01 80 1008.3
20260505084519 56 241 3.0 10.0 0.01 0.01 0.01 75 1008.1
20260505083014 57 147 2.0 4.0 0.00 0.00 0.00 65 1008.3
20260505081516 57 207 1.0 4.0 0.00 0.00 0.00 64 1008.4
20260505080010 57 144 2.0 4.0 0.00 0.00 0.00 63 1008.1
20260505074509 57 142 2.0 4.0 0.00 0.00 0.00 63 1008.1
20260505073008 57 153 1.0 5.0 0.00 0.00 0.00 62 1008.1
20260505071507 58 179 1.0 4.0 0.00 0.00 0.00 61 1008.2
20260505070006 58 149 2.0 6.0 0.00 0.00 0.00 61 1008.2
20260505064506 58 158 2.0 4.0 0.00 0.00 0.00 60 1008.4
20260505063002 58 184 2.0 7.0 0.00 0.00 0.00 59 1008.5
20260505061502 58 186 4.0 10.0 0.00 0.00 0.00 58 1008.6
20260505054559 58 142 3.0 9.0 0.00 0.00 0.00 57 1008.6
20260505053106 58 172 5.0 9.0 0.00 0.00 0.00 57 1008.6
20260505051554 58 138 3.0 10.0 0.00 0.00 0.00 56 1008.5
20260505041546 58 138 3.0 9.0 0.00 0.00 0.00 53 1008.4
20260505040044 59 139 2.0 8.0 0.00 0.00 0.00 53 1008.5
20260505034542 59 140 5.0 9.0 0.00 0.00 0.00 52 1008.4
20260505033104 59 133 4.0 14.0 0.00 0.00 0.00 51 1008.4
20260505031541 59 141 4.0 10.0 0.00 0.00 0.00 51 1008.5
20260505030043 60 155 6.0 11.0 0.00 0.00 0.00 51 1008.7
20260505024540 60 139 5.0 12.0 0.00 0.00 0.00 50 1008.8
20260505023048 60 143 6.0 10.0 0.00 0.00 0.00 50 1008.9
20260505021540 60 158 4.0 13.0 0.00 0.00 0.00 50 1008.9
20260505020045 60 156 4.0 11.0 0.00 0.00 0.00 50 1008.9
20260505014540 60 180 4.0 9.0 0.00 0.00 0.00 50 1008.8
20260505013038 61 148 4.0 11.0 0.00 0.00 0.00 49 1008.8
20260505011537 61 164 3.0 10.0 0.00 0.00 0.00 49 1008.8
20260505010041 62 148 3.0 10.0 0.00 0.00 0.00 48 1008.6
20260505004545 62 156 5.0 11.0 0.00 0.00 0.00 47 1008.5
20260505003038 63 154 4.0 8.0 0.00 0.00 0.00 46 1008.4
20260505001535 63 134 3.0 8.0 0.00 0.00 0.00 45 1008.3
20260505000037 64 136 3.0 8.0 0.00 0.00 0.00 44 1008.1
20260504234553 64 130 5.0 9.0 0.00 0.00 0.00 43 1008.0
20260504233035 65 179 3.0 9.0 0.00 0.00 0.00 43 1008.0
20260504231545 65 152 2.0 11.0 0.00 0.00 0.00 42 1007.8
20260504230034 66 165 4.0 12.0 0.00 0.00 0.00 40 1007.7
20260504224532 67 151 5.0 13.0 0.00 0.00 0.00 39 1007.6
20260504223031 67 158 5.0 10.0 0.00 0.00 0.00 38 1007.5
20260504221530 68 136 4.0 12.0 0.00 0.00 0.00 37 1007.7
20260504220028 69 210 3.0 14.0 0.00 0.00 0.00 36 1007.7
20260504214535 69 230 6.0 16.0 0.00 0.00 0.00 35 1007.8
20260504213029 69 213 5.0 14.0 0.00 0.00 0.00 35 1007.8
20260504211525 69 251 4.0 9.0 0.00 0.00 0.00 35 1008.0
20260504210023 68 227 3.0 13.0 0.00 0.00 0.00 35 1008.0
20260504204549 68 115 5.0 10.0 0.00 0.00 0.00 36 1008.2
20260504203019 68 213 3.0 11.0 0.00 0.00 0.00 35 1008.4
20260504201517 68 159 5.0 12.0 0.00 0.00 0.00 36 1008.5
20260504200016 69 211 2.0 13.0 0.00 0.00 0.00 33 1008.6
20260504194513 69 147 6.0 12.0 0.00 0.00 0.00 34 1008.7
20260504193020 68 155 4.0 11.0 0.00 0.00 0.00 34 1008.9
20260504191510 67 182 7.0 14.0 0.00 0.00 0.00 36 1009.2
20260504190010 68 222 6.0 12.0 0.00 0.00 0.00 35 1009.2
20260504184506 69 165 5.0 12.0 0.00 0.00 0.00 34 1009.6
20260504183005 69 234 4.0 13.0 0.00 0.00 0.00 33 1009.5
20260504181504 68 201 4.0 14.0 0.00 0.00 0.00 35 1009.6